Location: CNYAC Observatory
(43.2150°N, 74.9500°W)
Time: 23:33:27
(UTC-05:00)

Cosmos 1975 Rocket - Visible Passes

Search period start: 24 February 2017 00:00
Search period end: 06 March 2017 00:00
Orbit: 603 x 635 km, 82.5° (Epoch: 24 February)

Date Brightness Start Highest point End Pass type
(mag) Time Alt. Az. Time Alt. Az. Time Alt. Az.
25 Feb 5.0 18:16:17 10° NNW 18:20:13 35° W 18:24:09 10° SSW visible
26 Feb 6.6 05:13:20 10° ESE 05:15:07 12° E 05:16:53 10° ENE visible
26 Feb 6.2 18:34:18 10° NW 18:37:24 19° W 18:40:30 10° SW visible
27 Feb 5.9 05:28:50 10° SE 05:32:14 22° E 05:35:36 10° NE visible
27 Feb 6.9 18:53:38 10° WNW 18:54:29 10° W 18:55:21 10° W visible
28 Feb 4.6 05:45:20 10° SSE 05:49:26 40° E 05:53:31 10° NNE visible
01 Mar 3.3 06:02:21 10° S 06:06:44 77° E 06:11:06 10° N visible
02 Mar 6.5 04:44:48 10° ESE 04:46:47 13° E 04:48:45 10° ENE visible
03 Mar 5.6 05:00:27 10° SE 05:03:53 23° E 05:07:21 10° NE visible
04 Mar 4.4 05:16:59 10° SSE 05:21:06 42° E 05:25:13 10° NNE visible
05 Mar 3.2 05:34:03 10° S 05:38:25 81° E 05:42:46 10° N visible
